This demonstration page uses our WeatherBlox Daily Observations layout. Learn more.

Left ArrowRight Arrow

Hourly Observations for May 7, 2021

Temp ( °F °C ) Dew Point ( °F °C ) Humidity (%) Winds ( mph kmh ) Pressure ( in mb ) Visibility ( mi km ) Precip ( " mm )
12:15 am 00:15 Clear 56 13.5 37 2.5 48 48 SSW 13 20 30.12 1020 10 16 N/A
12:35 am 00:35 Clear 56 13.1 37 2.6 49 49 SSW 13 20 30.12 1020 10 16 N/A
12:55 am 00:55 Clear 55 13 37 2.5 49 49 SSW 15 24 30.11 1020 10 16 N/A
1:15 am 01:15 Clear 55 13 37 2.5 49 49 SSW 15 24 30.11 1020 10 16 N/A
1:35 am 01:35 Clear 55 12.6 37 2.5 50 50 SW 15 24 30.12 1020 10 16 N/A
1:55 am 01:55 Clear 55 12.5 37 2.7 52 52 SW 15 24 30.12 1020 10 16 N/A
2:15 am 02:15 Clear 54 12 37 2.8 54 54 SW 12 19 30.11 1020 10 16 N/A
2:35 am 02:35 Clear 54 12.1 37 2.8 53 53 SW 15 24 30.11 1020 10 16 N/A
2:55 am 02:55 Clear 54 12 37 2.9 54 54 SW 13 20 30.11 1020 10 16 N/A
3:15 am 03:15 Clear 54 12 37 2.7 53 53 SW 14 22 30.10 1019 10 16 N/A
3:35 am 03:35 Clear 53 11.7 37 2.7 54 54 SW 14 22 30.11 1019 10 16 N/A
3:55 am 03:55 Clear 53 11.7 37 2.6 54 54 SW 20 31 30.11 1019 10 16 N/A
4:15 am 04:15 Clear 53 11.5 37 2.7 55 55 SW 17 28 30.11 1020 10 16 N/A
4:35 am 04:35 Clear 53 11.5 37 2.7 55 55 SW 17 28 30.12 1020 10 16 N/A
4:55 am 04:55 Clear 51 10.8 37 2.6 57 57 SW 12 19 30.12 1020 10 16 N/A
5:15 am 05:15 Clear 51 10.5 37 2.7 59 59 SW 12 19 30.13 1020 10 16 N/A
5:35 am 05:35 Clear 50 10.1 37 2.8 61 61 SW 9 15 30.13 1020 10 16 N/A
5:55 am 05:55 Clear 49 9.2 37 2.8 65 65 SW 6 9 30.14 1021 10 16 N/A
6:15 am 06:15 Clear 48 8.7 37 2.8 67 67 SSW 5 7 30.14 1021 10 16 N/A
6:35 am 06:35 Sunny 47 8.2 37 2.5 68 68 S 5 7 30.15 1021 10 16 N/A
6:55 am 06:55 Sunny 48 8.7 37 2.6 66 66 SSE 5 7 30.14 1021 10 16 N/A
7:15 am 07:15 Sunny 49 9.3 37 2.8 64 64 SSE 6 9 30.13 1020 10 16 N/A
7:35 am 07:35 Sunny 51 10.5 38 3.3 61 61 SSE 6 9 30.13 1020 10 16 N/A
7:55 am 07:55 Sunny 53 11.8 38 3.1 56 56 SSE 7 11 30.11 1020 10 16 N/A
8:15 am 08:15 Sunny 55 12.8 37 2.5 50 50 SSE 9 15 30.11 1019 10 16 N/A
8:35 am 08:35 Sunny 56 13.5 37 2.6 48 48 SSE 12 19 30.09 1019 10 16 N/A
8:55 am 08:55 Sunny 57 13.9 37 2.8 47 47 SSE 9 15 30.08 1018 10 16 N/A
9:15 am 09:15 Sunny 59 14.8 37 2.9 45 45 SSE 9 15 30.07 1018 10 16 N/A
9:35 am 09:35 Sunny 60 15.7 37 3 43 43 SSE 14 22 30.05 1018 10 16 N/A
9:55 am 09:55 Partly Cloudy 62 16.5 37 2.8 40 40 SSE 15 24 30.04 1017 10 16 N/A
10:15 am 10:15 Mostly Cloudy 63 17.1 37 2.5 38 38 S 15 24 30.03 1017 10 16 N/A
10:35 am 10:35 Partly Cloudy 64 17.8 37 2.7 37 37 SE 20 31 30.00 1016 10 16 N/A
10:55 am 10:55 Sunny 66 18.7 37 3 35 35 SSE 18 30 29.99 1016 10 16 N/A
11:15 am 11:15 Sunny 66 19.1 38 3.6 36 36 SSE 17 28 29.99 1016 10 16 N/A
11:35 am 11:35 Sunny 67 19.4 39 4 36 36 SSE 17 28 29.98 1015 10 16 N/A
11:55 am 11:55 Sunny 67 19.7 39 4 36 36 SE 16 26 29.96 1015 10 16 N/A
12:15 pm 12:15 Sunny 68 19.9 39 4.1 35 35 SSE 15 24 29.95 1014 10 16 N/A
12:35 pm 12:35 Sunny 69 20.7 40 4.5 35 35 SE 14 22 29.95 1014 10 16 N/A
12:55 pm 12:55 Sunny 70 21.3 41 5 35 35 SE 13 20 29.93 1014 10 16 N/A
1:15 pm 13:15 Sunny 70 21.2 41 5.2 35 35 SE 18 30 29.91 1013 10 16 N/A
1:35 pm 13:35 Sunny 70 21.2 41 5.2 35 35 SE 16 26 29.90 1013 10 16 N/A
1:55 pm 13:55 Sunny 71 21.8 42 5.7 35 35 SE 21 33 29.89 1012 10 16 N/A
2:15 pm 14:15 Sunny 72 22 42 5.7 35 35 SSE 18 30 29.88 1012 10 16 N/A
2:35 pm 14:35 Sunny 72 22.4 43 6 35 35 SE 15 24 29.86 1011 10 16 N/A
2:55 pm 14:55 Sunny 73 22.8 43 6.3 35 35 SE 12 19 29.86 1011 10 16 N/A
3:15 pm 15:15 Sunny 74 23.1 43 6.3 34 34 ESE 14 22 29.85 1011 10 16 N/A
3:35 pm 15:35 Sunny 74 23.1 44 6.4 34 34 SE 16 26 29.85 1011 10 16 N/A
3:55 pm 15:55 Sunny 74 23.1 44 6.4 34 34 ESE 14 22 29.84 1010 10 16 N/A
4:15 pm 16:15 Sunny 74 23.5 44 6.8 34 34 ESE 16 26 29.82 1010 10 16 N/A
4:35 pm 16:35 Sunny 74 23.4 44 6.8 34 34 SE 14 22 29.81 1010 10 16 N/A
4:55 pm 16:55 Sunny 75 23.7 45 7 34 34 SE 17 28 29.80 1009 10 16 N/A
5:15 pm 17:15 Sunny 74 23.4 44 6.9 35 35 ESE 18 30 29.79 1009 10 16 N/A
5:35 pm 17:35 Sunny 73 23 44 6.9 36 36 ESE 18 30 29.79 1009 10 16 N/A
5:55 pm 17:55 Sunny 73 22.6 45 7.1 37 37 E 17 28 29.79 1009 10 16 N/A
6:15 pm 18:15 Sunny 72 22.3 45 7 37 37 ESE 22 35 29.78 1009 10 16 N/A
6:35 pm 18:35 Sunny 72 22.1 45 7.1 38 38 ESE 17 28 29.78 1009 10 16 N/A
7:15 pm 19:15 Sunny 71 21.9 45 7.4 39 39 ESE 15 24 29.79 1009 10 16 N/A
7:35 pm 19:35 Sunny 71 21.5 46 7.5 41 41 ESE 14 22 29.79 1009 10 16 N/A
7:55 pm 19:55 Sunny 69 20.6 45 7.4 43 43 E 15 24 29.80 1009 10 16 N/A
8:15 pm 20:15 Sunny 67 19.7 45 7 44 44 E 14 22 29.80 1009 10 16 N/A
8:35 pm 20:35 Sunny 66 18.9 45 7 46 46 E 14 22 29.80 1009 10 16 N/A
8:55 pm 20:55 Clear 65 18.1 45 7.1 49 49 E 12 19 29.81 1009 10 16 N/A
9:15 pm 21:15 Clear 64 17.5 45 7 50 50 E 10 17 29.82 1010 10 16 N/A
9:35 pm 21:35 Clear 63 17 44 6.9 52 52 E 13 20 29.83 1010 10 16 N/A
9:55 pm 21:55 Clear 61 16.3 44 6.5 53 53 E 17 28 29.83 1010 10 16 N/A
10:15 pm 22:15 Clear 61 15.9 42 5.8 51 51 E 13 20 29.85 1011 10 16 N/A
10:35 pm 22:35 Clear 60 15.3 42 5.5 52 52 E 15 24 29.85 1011 10 16 N/A
10:55 pm 22:55 Clear 59 15 42 5.5 53 53 E 16 26 29.86 1011 10 16 N/A
11:15 pm 23:15 Clear 58 14.5 43 6 57 57 ESE 15 24 29.86 1011 10 16 N/A
11:35 pm 23:35 Clear 58 14.2 44 6.6 60 60 ESE 16 26 29.86 1011 10 16 N/A
11:55 pm 23:55 Clear 57 14 45 7 63 63 ESE 17 28 29.84 1011 10 16 N/A

Powered by AerisWeather